Flag for Canada Weather past 2 weeks in Oakville, Ontario, Canada

Now
17 °F

Cold.


Feels Like: 5 °F
Forecast: 13 / 24 °F
Wind: 9 mph from Northwest

Location: Burlington Piers

Current Time: Jan 25, 2015 at 9:19:33 AM

Latest Report: Jan 25, 2015 at 8:00 AM


Visibility: N/A

Pressure: 29.90 "Hg

Humidity: 66%

Dew point: 7 °F

Location of OakvilleLocation

Historic Weather in Oakville — Graph

°F

Oakville temperature yesterday

Maximum temperature yesterday: 34 °F (at 11:00 PM)
Minimum temperature yesterday: 25 °F (at 2:00 AM)
Average temperature yesterday: 29 °F

Past Weeks' High & Low Weather Summary

 TemperatureHumidityPressure
High44 °F (Jan 18, 4:00 AM)100% (Jan 12, 10:00 AM)30.84 "Hg (Jan 12, 10:00 AM)
Low-1 °F (Jan 13, 7:00 AM)32% (Jan 16, 2:00 PM)29.49 "Hg (Jan 24, 3:00 PM)
Average24 °F70%30.13 "Hg
* Reported Jan 10 8:00 AM — Jan 25 8:00 AM, Oakville, Weather by CustomWeather, © 2014

Note: Actual official high and low records may vary slightly from our data, if they occured in-between our weather recording intervals... More about our weather records

Advertising

Oakville weather history for previous 24 hours

 ConditionsComfort  
Time TempWeatherWind HumidityBarometerVisibility
8:00 AM
Jan 25
17 °FCold.9 mph66%29.90 "HgN/A
7:00 AM18 °FCold.7 mph65%29.87 "HgN/A
6:00 AM19 °FCold.7 mph65%29.84 "HgN/A
5:00 AM21 °FCold.13 mph65%29.79 "HgN/A
4:00 AM26 °FChilly.13 mph65%29.73 "HgN/A
3:00 AM29 °FChilly.12 mph68%29.68 "HgN/A
2:00 AM33 °FChilly.10 mph63%29.63 "HgN/A
1:00 AM32 °FChilly.6 mph66%29.59 "HgN/A
12:00 AM34 °FChilly.12 mph72%29.57 "HgN/A
11:00 PM
Jan 24
34 °FChilly.6 mph87%29.55 "HgN/A
10:00 PM31 °FChilly.6 mph92%29.55 "HgN/A
9:00 PM33 °FChilly.8 mph84%29.54 "HgN/A
8:00 PM32 °FChilly.8 mph87%29.53 "HgN/A
7:00 PM32 °FChilly.8 mph87%29.52 "HgN/A
6:00 PM32 °FChilly.8 mph87%29.51 "HgN/A
5:00 PM31 °FChilly.7 mph88%29.49 "HgN/A
4:00 PM31 °FChilly.6 mph88%29.49 "HgN/A
3:00 PM30 °FChilly.6 mph85%29.49 "HgN/A
2:00 PM30 °FChilly.5 mph82%29.50 "HgN/A
1:00 PM30 °FChilly.5 mph82%29.53 "HgN/A
12:00 PM29 °FChilly.6 mph81%29.57 "HgN/A
11:00 AM29 °FChilly.6 mph88%29.59 "HgN/A
10:00 AM28 °FChilly.8 mph83%29.61 "HgN/A
9:00 AM27 °FChilly.8 mph82%29.62 "HgN/A
Weather by CustomWeather, © 2014

See weather overviewHow to use our weather pages